カタログに戻る

COSMOS 2251 DEB

運用中LEO
NORAD 36557·DEBRIS·🇷🇺 Russia

打ち上げ Jun 16, 1993 から Plesetsk Cosmodrome

Loading…

次のパス (今後24時間)

TLE

最新Source: Space-Track

元期: Sep 14, 2026, 10:51 UTC

1 36557U 93036BDT 26257.45262541  .00012341  00000-0  13414-2 0  9994
2 36557  73.9778 297.9680 0020158   4.8750 355.2623 14.87988821379865

AllMySatでCOSMOS 2251 DEBをリアルタイム追跡

Download on the App Store